loading
DOY 175 | 2024-06-23T10:56:33Z

SCOUT X-4 DEB, 976

Orbit data source: Space-Track

SCOUT X-4 DEB, 976 is space debris in LEO originally from a launch on Sat, 10 Oct 1964 UTC launched from the Air Force Western Test Range (AFWTR). Debris objects in space refer to the collection of defunct objects orbiting the Earth. Examples of debris include non-operational satellites, rocket bodies, and fragments generated from explosions, collisions, or faulty payload assembly.

Loading next visibility...
Loading greatness...
SCOUT X-4 DEB details
NORAD ID976
COSPAR ID
1964-064C
Orbit
LEO
Last TLE update17 hours ago
Origin
Flag of USGSFC (US)
ManufacturerAPL
BusUnknown
MotorUnknown
MassWet unknown, Dry mass unknown
Launch date (UTC)
1964-10-10 (60 years ago)
Launch vehicleUnknown
Launch site
Air Force Western Test Range (AFWTR)
Object type
Payload
Rocket body
Debris
Radar Cross SectionSmall (<0.1 m²)
Predictive object data (real-time)
Latitude-76.79473°
Longitude-145.43516°
Altitude951.881 km
Speed7.348 km/s
Apparent Right ascension08h 44m 19s
Apparent Declination-67° 46' 21"
Sunlit
Object is in daylight
Predictive observer data (real-time)
Local Sidereal Time22:04:29
Azimuth164.944° S
Elevation-60.06°
Doppler factor1
Orbital elements
Apogee952.812 km
Perigee783.878 km
Semi-major axis7,246.482 km
Eccentricity0.0116563
Inclination79.3151°
RAAN93.9593°
Arg. of periapsis150.1378°
True anomaly209.978°
Mean anomaly210.6505°
Mean motion3.51846 °/min
BSTAR0.00043857
Period102.32 mins
Definitive object data (Epoch: 2024-06-22T18:16:07.902Z)
Latitude0.00006°
Longitude-91.49352°
Altitude946.852 km
Speed7.341 km/s
True Right ascension06h 15m 50s
True Declination0° 00' 00"
Sunlit
Object was in daylight at TLE epoch
TLE from 17 hours ago
0 SCOUT X-4 DEB
1 00976U 64064C   24174.76120257  .00000779  00000-0  43857-3 0  9993
2 00976  79.3151  93.9593 0116563 150.1378 210.6505 14.06589855 41066
Epoch: 2024-06-22T18:16Z
No data available
Other satellites on launch #64 in the year 1964 (1964-10-10 UTC)

SCOUT X-4 DEB Visibility forecast

Observer location: 39.9160978°, -105.1181434, 0m alt.

SCOUT X-4 DEB is not visible in the next 10 days
Span
Click to sort rows by Start time (UTC) header in descending order
Start Az.
Max El. time (UTC)
Max El. Az.
Max El.
End time (UTC)
End Az.